Location: ??????
(42.0089°N, 44.3281°E)
Time: 13:20:34
(UTC+00:00)

NOSS 8 (H) - Pass Details

Date: 07 June 2022
Orbit: 366 x 1779 km, 63.3° (Epoch: 28 June)

Event Time Altitude Azimuth Distance (km) Brightness Sun altitude
Rises 17:35:13 0° 315° (NW) 2,610 10.7 -9.6°
Reaches altitude 10° 17:37:11 10° 307° (NW) 1,857 9.1 -9.8°
Maximum altitude 17:41:03 39° 238° (WSW) 1,042 6.3 -10.3°
Drops below altitude 10° 17:46:22 10° 171° (S) 2,574 7.7 -11.0°
Enters shadow 17:46:58 - 170° (S) 2,801 7.9 -11.1°
